Regional Weather Roundup
Issued by NWS

Home | Current Version | Previous Version | Graphics & Text | Print | Product List | Glossary On
Versions: 1 2 3 4 5 6 7 8 9 10 11 12 13 14 15 16 17 18 19 20 21 22 23 24 25 26 27 28 29 30 31 32 33 34 35 36 37 38 39 40 41 42 43 44 45 46 47 48 49 50
000
ASUS43 KOAX 251202
RWRNE

WEATHER ROUNDUP FOR NEBRASKA
NATIONAL WEATHER SERVICE OMAHA NE
600 AM CST SAT FEB 25 2017

NOTES: SATELLITE DATA IS BEING USED TO AUGMENT CLOUD COVER ABOVE
       12000 FEET.
       "FAIR" INDICATES FEW OR NO CLOUDS BELOW 12,000 FEET WITH NO
       SIGNIFICANT WEATHER AND/OR OBSTRUCTIONS TO VISIBILITY.

  * THESE STATIONS DO NOT REPORT WEATHER SUCH AS RAIN...SNOW OR FOG.

NEZ001>004-019>022-054>056-251300-
NEBRASKA PANHANDLE

CITY           SKY/WX    TMP DP  RH WIND       PRES   REMARKS
SCOTTSBLUFF    CLOUDY    -2  -7  79 NW9       29.97S WCI -18
6HR MIN TEMP:  -4; 6HR MAX TEMP:  12;

ALLIANCE       FOG      -10 -14  82 SW7       29.94S VSB 1/2 WCI -25
6HR MIN TEMP: -12; 6HR MAX TEMP:   0;

CHADRON        CLEAR      2  -2  83 SW9       29.97S WCI -13
6HR MIN TEMP:   1; 6HR MAX TEMP:   7;

KIMBALL        PTCLDY    13  10  87 W10       29.94R WCI  -1
SIDNEY         PTCLDY     6   2  83 W9        29.95F WCI  -8
6HR MIN TEMP:   0; 6HR MAX TEMP:   8;

$$

NEZ057>060-069>072-079>082-251300-
SOUTHWEST NEBRASKA

CITY           SKY/WX    TMP DP  RH WIND       PRES   REMARKS
NORTH PLATTE   FOG        5   1  83 CALM      30.06F VSB 3/4
6HR MIN TEMP:   4; 6HR MAX TEMP:  13;

IMPERIAL       CLEAR     11   7  84 SW7       30.04F WCI   0
6HR MIN TEMP:   8; 6HR MAX TEMP:  15;

LEXINGTON      CLOUDY     5   2  85 NW5       30.09S WCI  -4
MCCOOK         CLEAR      8   6  92 W5        30.10S WCI   0
6HR MIN TEMP:   7; 6HR MAX TEMP:  16;

OGALLALA       CLOUDY     6   3  87 CALM      30.02F
$$

NEZ005>010-023>029-035>040-094-251300-
NORTH CENTRAL NEBRASKA

CITY           SKY/WX    TMP DP  RH WIND       PRES   REMARKS
VALENTINE      CLOUDY    -1  -6  79 SW5       30.00F WCI -11
6HR MIN TEMP:  -3; 6HR MAX TEMP:   4;

AINSWORTH      CLOUDY     5   3  91 SW5       30.02S WCI  -4
BROKEN BOW     CLOUDY     4   1  88 CALM      30.05F
6HR MIN TEMP:   3; 6HR MAX TEMP:  16;

O`NEILL        CLOUDY     8   6  89 W3        30.07S
ORD            CLOUDY     1  -4  79 CALM      30.08F
6HR MIN TEMP:   0; 6HR MAX TEMP:  14;

THEDFORD       CLOUDY     5   2  87 SW3       30.02F
$$

NEZ041-046>049-061>064-073>077-083>087-251300-
SOUTH CENTRAL NEBRASKA

CITY           SKY/WX    TMP DP  RH WIND       PRES   REMARKS
GRAND ISLAND   CLOUDY    10   7  87 W8        30.11F WCI  -2
6HR MIN TEMP:  10; 6HR MAX TEMP:  18;

AURORA         CLOUDY    11   7  85 W6        30.11S WCI   1
HASTINGS       CLOUDY    12   7  80 W7        30.12S WCI   1
6HR MIN TEMP:  12; 6HR MAX TEMP:  19;

HEBRON         CLEAR     15  11  83 NW5       30.15S WCI   7
HOLDREGE       CLEAR     11   7  82 W5        30.09F WCI   3
KEARNEY *      CLEAR     10   3  72 CALM      30.11S
YORK           CLEAR     10   7  85 NW7       30.11F WCI   0
$$

NEZ011>018-030>034-042>045-251300-
NORTHEAST NEBRASKA

CITY           SKY/WX    TMP DP  RH WIND       PRES   REMARKS
NORFOLK        CLOUDY    10   5  80 W10       30.09S WCI  -4
6HR MIN TEMP:  10; 6HR MAX TEMP:  20;

ALBION         CLOUDY    10   4  77 NW6       30.09F WCI   1
BLAIR          PTCLDY    16  12  86 NW9       30.08F WCI   4
FREMONT        CLOUDY    13  11  89 NW7       30.11S WCI   3
TEKAMAH        CLEAR     14   9  80 NW6       30.11R WCI   5
6HR MIN TEMP:  14; 6HR MAX TEMP:  21;

WAYNE          CLOUDY     9   6  88 SW3       30.09R
$$

NEZ050>053-065>068-078-088>093-251300-
SOUTHEAST NEBRASKA

CITY           SKY/WX    TMP DP  RH WIND       PRES   REMARKS
LINCOLN        CLOUDY    16  11  80 W6        30.14R WCI   7
6HR MIN TEMP:  16; 6HR MAX TEMP:  25;

OMAHA EPPLEY   PTCLDY    16  10  77 NW6       30.11R WCI   7
6HR MIN TEMP:  16; 6HR MAX TEMP:  24;

BEATRICE       CLOUDY    17  12  82 W6        30.13S WCI   8
FALLS CITY     CLEAR     17  13  84 W7        30.12R WCI   8
6HR MIN TEMP:  17; 6HR MAX TEMP:  25;

NEBRASKA CITY  CLOUDY    18  12  77 NW9       30.11S WCI   6
PLATTSMOUTH    CLOUDY    17  10  77 NW5       30.10S WCI   9
$$

NEZ044-045-051>053-067-251300-
OMAHA AREA

CITY           SKY/WX    TMP DP  RH WIND       PRES   REMARKS
OMAHA EPPLEY   PTCLDY    16  10  77 NW6       30.11R WCI   7
6HR MIN TEMP:  16; 6HR MAX TEMP:  24;

BLAIR          PTCLDY    16  12  86 NW9       30.08F WCI   4
FREMONT        CLOUDY    13  11  89 NW7       30.11S WCI   3
MILLARD        CLEAR     21  16  78 NW6       30.11S WCI  14
OFFUTT AFB     CLEAR     16  10  79 NW8       30.10S WCI   5
PLATTSMOUTH    CLOUDY    17  10  77 NW5       30.10S WCI   9
WAHOO          FAIR      17  12  81 NW9       30.11R WCI   5
$$




USA.gov is the U.S. government's official web portal to all federal, state and local government web resources and services.